DateTimeUTC,F1_A11,F1_S11,BsB_S11,BsG_S11,BsR_S11,BbsB_S11,BbsG_S11,BbsR_S11,BaB_A11,BaG_A11,BaR_A11,Tu_S11,T_S11,Uu_S11,U_S11,P_S11,T1_A11
2021-07-14T14:00:00Z,00000200,20000000,,,,,,,0000.15,-000.02,0000.17,19.0,25.6,10.2,06.8,0661.4,31.1
2021-07-14T14:01:00Z,00000200,20000000,,,,,,,-000.22,-000.17,0000.21,19.0,25.6,10.1,06.7,0661.4,31.1
2021-07-14T14:02:00Z,00000200,20000000,,,,,,,0000.23,-000.06,-000.26,19.0,25.6,10.0,06.7,0661.4,31.1
2021-07-14T14:03:00Z,00000200,60000000,,,,,,,0000.83,0000.90,0000.69,19.0,25.6,10.0,06.7,0661.5,31.1
2021-07-14T14:04:00Z,00000200,40000000,0004.29,0002.26,0001.76,0001.11,0000.38,0000.35,0001.00,0000.83,0000.46,19.1,25.4,10.2,07.0,0662.4,31.1
2021-07-14T14:05:00Z,00000200,00000000,0003.86,0002.10,0001.83,0000.99,0000.34,0000.56,0001.02,0001.14,0000.87,19.2,25.4,10.2,07.0,0662.4,31.1
2021-07-14T14:06:00Z,00000200,00000000,0003.09,0002.30,0001.61,0000.70,0000.47,0000.62,0000.44,0000.31,0000.61,19.2,25.4,10.2,07.0,0662.3,31.2
2021-07-14T14:07:00Z,00000200,00000000,0003.14,0002.19,0001.65,0001.10,0000.54,0000.41,0001.25,0000.82,0000.67,19.2,25.4,10.3,07.1,0662.3,31.1
2021-07-14T14:08:00Z,00000200,00000000,0004.27,0001.96,0001.63,0001.02,0000.39,0000.24,0000.63,0001.14,0000.35,19.2,25.4,10.4,07.2,0662.4,31.1
2021-07-14T14:09:00Z,00000200,00000000,0003.47,0002.80,0001.64,0000.99,0000.44,0000.68,0000.86,0000.78,0000.74,19.2,25.4,10.3,07.1,0662.4,31.1
2021-07-14T14:10:00Z,00000200,00000000,0004.10,0002.43,0001.81,0000.83,0000.43,0000.39,0000.70,0000.46,0000.57,19.2,25.4,10.5,07.2,0662.4,31.1
2021-07-14T14:11:00Z,00000200,00000000,0004.04,0002.51,0001.67,0001.01,0000.20,0000.63,0000.80,0000.54,0000.42,19.2,25.4,10.4,07.1,0662.3,31.2
2021-07-14T14:12:00Z,00000200,00000000,0003.39,0002.19,0001.68,0000.34,0000.45,0000.63,0000.97,0000.91,0000.71,19.2,25.4,10.4,07.1,0662.4,31.1
2021-07-14T14:13:00Z,00000200,00000000,0003.91,0002.32,0001.45,0000.64,0000.31,0000.35,0000.62,0000.87,0000.33,19.2,25.4,10.6,07.3,0662.3,31.1
2021-07-14T14:14:00Z,00000200,00000000,0003.46,0001.98,0001.38,0001.17,0000.39,0000.33,0000.90,0000.50,0000.69,19.2,25.4,10.4,07.2,0662.3,31.1
2021-07-14T14:15:00Z,00000200,00000000,0002.82,0002.12,0001.62,0001.08,-000.04,-000.03,0000.77,0000.75,0000.53,19.2,25.4,10.5,07.2,0662.3,31.1
2021-07-14T14:16:00Z,00000200,00000000,0002.65,0001.83,0001.31,0000.34,0000.52,0000.54,0000.53,0000.62,0000.73,19.2,25.4,10.6,07.2,0662.3,31.1
2021-07-14T14:17:00Z,00000200,00000000,0003.27,0001.64,0001.32,0000.19,0000.40,0000.10,0001.01,0000.97,0000.44,19.2,25.4,10.5,07.2,0662.3,31.1
2021-07-14T14:18:00Z,00000200,00000000,0004.18,0001.98,0001.43,-000.33,0000.63,0000.48,0001.03,0000.69,0000.45,19.2,25.4,10.8,07.4,0662.3,31.1
2021-07-14T14:19:00Z,00000200,00000000,0003.48,0002.43,0001.66,0001.34,0000.47,0000.72,0000.61,0000.44,0000.64,19.2,25.4,10.5,07.2,0662.2,31.1
2021-07-14T14:20:00Z,00000200,00000000,0003.33,0002.22,0001.30,0001.04,0000.56,0000.21,0000.64,0000.98,0000.53,19.2,25.4,10.4,07.1,0662.2,31.1
2021-07-14T14:21:00Z,00000200,00000000,0003.86,0001.92,0001.77,0000.86,0000.41,0000.52,0000.75,0000.52,0000.64,19.2,25.4,10.3,07.1,0662.2,31.1
2021-07-14T14:22:00Z,00000200,00000000,0003.99,0002.12,0001.40,0001.00,0000.55,0000.20,0000.66,0000.51,0000.23,19.2,25.4,10.4,07.2,0662.2,31.1
2021-07-14T14:23:00Z,00000200,00000000,0003.12,0002.08,0001.27,0000.88,0000.53,0000.37,0000.48,0000.80,0000.44,19.3,25.4,10.3,07.1,0662.2,31.1
2021-07-14T14:24:00Z,00000200,00000000,0003.48,0001.83,0001.56,0000.82,0000.40,0000.66,0001.26,0000.68,0000.75,19.3,25.4,10.4,07.2,0662.2,31.1
2021-07-14T14:25:00Z,00000200,00000000,0003.02,0002.08,0001.49,0000.54,0000.20,0000.30,0000.33,0000.43,0000.37,19.3,25.4,10.5,07.2,0662.2,31.1
2021-07-14T14:26:00Z,00000200,00000000,0003.31,0002.35,0001.47,0000.99,0000.30,0000.32,0000.87,0000.95,0000.56,19.3,25.4,10.4,07.2,0662.2,31.1
2021-07-14T14:27:00Z,00000200,00000000,0002.50,0002.06,0001.63,0000.14,0000.60,0000.11,0000.56,0000.34,0000.21,19.3,25.4,10.4,07.2,0662.2,31.1
2021-07-14T14:28:00Z,00000200,00000000,0003.99,0002.31,0001.67,0000.90,0000.71,0000.60,0001.20,0000.81,0000.76,19.2,25.4,10.5,07.2,0662.3,31.1
2021-07-14T14:29:00Z,00000200,00000000,0003.54,0002.20,0001.53,0000.34,0000.79,0000.39,0000.58,0000.94,0000.96,19.3,25.4,10.6,07.3,0662.2,31.1
2021-07-14T14:30:00Z,00000200,00000000,0003.13,0002.13,0001.47,0000.71,0000.16,0000.38,0000.72,0000.67,0000.22,19.3,25.4,10.6,07.3,0662.2,31.1
2021-07-14T14:31:00Z,00000200,00000000,0002.86,0001.79,0001.10,0000.30,0000.32,0000.77,0000.59,0000.31,0000.12,19.3,25.4,10.6,07.3,0662.2,31.1
2021-07-14T14:32:00Z,00000200,00000000,0003.10,0001.74,0001.31,0000.71,0000.40,0000.54,0000.69,0000.56,0000.60,19.3,25.4,10.6,07.3,0662.2,31.1
2021-07-14T14:33:00Z,00000200,00000000,0002.34,0001.79,0001.11,0001.00,0000.28,0000.29,0000.55,0000.71,0000.60,19.3,25.4,10.5,07.2,0662.2,31.1
2021-07-14T14:34:00Z,00000200,00000000,0002.98,0001.71,0001.30,0000.34,0000.33,0000.30,0000.44,0000.33,0000.37,19.3,25.4,10.4,07.2,0662.1,31.1
2021-07-14T14:35:00Z,00000200,00000000,0002.92,0001.48,0001.36,0000.73,0000.30,0000.51,0000.77,0000.71,0000.22,19.3,25.4,10.5,07.2,0662.2,31.1
2021-07-14T14:36:00Z,00000200,00000000,0002.30,0001.63,0001.24,0000.34,0000.30,0000.54,0000.49,0000.78,0000.59,19.3,25.4,10.5,07.2,0662.2,31.1
2021-07-14T14:37:00Z,00000200,00000000,0002.93,0001.20,0001.14,0000.49,0000.27,0000.29,0000.46,0000.23,0000.36,19.3,25.4,10.6,07.3,0662.1,31.1
2021-07-14T14:38:00Z,00000200,00000000,0003.19,0001.65,0001.11,0001.15,0000.34,0000.36,0000.78,0000.12,0000.39,19.3,25.4,10.6,07.3,0662.1,31.1
2021-07-14T14:39:00Z,00000200,00000000,0003.26,0001.65,0001.14,0000.27,0000.28,0000.58,0000.63,0001.33,0000.46,19.3,25.4,10.5,07.3,0662.1,31.1
2021-07-14T14:40:00Z,00000200,00000000,0002.98,0001.70,0001.30,0000.39,0000.21,0000.36,0000.95,0000.53,0000.85,19.3,25.4,10.7,07.3,0662.1,31.1
2021-07-14T14:41:00Z,00000200,00000000,0003.21,0001.85,0001.24,0000.57,0000.52,0000.18,0000.22,0000.07,0000.10,19.3,25.4,10.7,07.3,0662.1,31.1
2021-07-14T14:42:00Z,00000200,00000000,0002.05,0001.63,0000.95,0000.52,0000.44,0000.31,0000.48,0000.81,0000.34,19.3,25.4,10.7,07.4,0662.1,31.1
2021-07-14T14:43:00Z,00000200,00000000,0002.86,0001.35,0000.97,0000.30,0000.30,0000.54,0000.66,0000.50,0000.62,19.3,25.4,10.7,07.4,0662.2,31.1
2021-07-14T14:44:00Z,00000200,00000000,0002.52,0001.39,0000.83,0000.77,0000.27,0000.19,0000.33,0000.40,0000.09,19.3,25.4,10.8,07.4,0662.1,31.1
2021-07-14T14:45:00Z,00000200,00000000,0002.98,0001.39,0001.26,0001.00,0000.30,0000.18,0000.86,0000.75,0000.41,19.3,25.4,10.7,07.4,0662.1,31.1
2021-07-14T14:46:00Z,00000200,00000000,0002.36,0001.43,0001.13,-000.15,0000.20,0000.15,0000.47,0000.38,0000.40,19.3,25.4,10.7,07.4,0662.1,31.1
2021-07-14T14:47:00Z,00000200,00000000,0003.01,0001.33,0000.81,0001.06,0000.44,0000.29,0000.35,0000.43,0000.58,19.3,25.4,10.7,07.4,0662.1,31.1
2021-07-14T14:48:00Z,00000200,00000000,0002.71,0001.59,0001.14,0000.72,0000.45,0000.28,0000.78,0000.68,-000.10,19.3,25.4,10.7,07.4,0662.1,31.1
2021-07-14T14:49:00Z,00000200,00000000,0002.34,0001.70,0001.10,-000.13,0000.19,0000.53,0000.40,0000.28,0000.81,19.3,25.4,10.7,07.4,0662.1,31.1
2021-07-14T14:50:00Z,00000200,00000000,0002.90,0001.47,0001.51,0000.16,0000.18,0000.65,0000.48,0000.66,0000.11,19.3,25.4,10.8,07.4,0662.1,31.1
2021-07-14T14:51:00Z,00000200,00000000,0002.66,0001.62,0000.85,0000.62,0000.25,0000.23,0000.64,0000.56,0000.20,19.3,25.4,10.9,07.5,0662.1,31.1
2021-07-14T14:52:00Z,00000200,00000000,0003.16,0001.80,0000.85,0000.13,0000.54,0000.42,0000.56,0000.15,0000.55,19.3,25.4,10.9,07.5,0662.0,31.1
2021-07-14T14:53:00Z,00000200,00000000,0002.12,0001.42,0001.12,0000.48,0000.21,0000.33,0000.60,0000.37,0000.49,19.3,25.4,10.7,07.4,0662.0,31.1
2021-07-14T14:54:00Z,00000200,00000000,0002.15,0001.44,0000.89,0000.97,0000.44,0000.01,0000.27,0000.80,0000.32,19.3,25.4,10.7,07.4,0662.0,31.1
2021-07-14T14:55:00Z,00000200,00000000,0002.46,0001.25,0001.03,0000.58,0000.07,0000.34,0000.65,0000.29,0000.41,19.3,25.4,10.8,07.4,0662.0,31.1
2021-07-14T14:56:00Z,00000200,00000000,0002.26,0001.59,0001.44,0000.26,0000.42,0000.53,0000.49,0000.40,0000.32,19.3,25.4,10.7,07.4,0662.0,31.1
2021-07-14T14:57:00Z,00000200,40000000,,,,,,,-000.31,-000.03,-000.15,19.4,25.5,11.0,07.6,0661.9,31.1
2021-07-14T14:58:00Z,00000200,60000000,,,,,,,0000.23,0000.22,0000.05,19.2,25.5,10.7,07.2,0661.0,31.1
2021-07-14T14:59:00Z,00000200,20000000,,,,,,,-000.05,-000.21,-000.05,19.2,25.6,10.7,07.2,0661.0,31.1
